RH
58 53 54 61 63 56 86 71 76 60 72 56 75 93 95 90 83 82 83 83 85 86 84 84 83 85 96 99 100 100 97 96 94 86 80 77 75 72 70 64 61 59 60 57
78 46 50 59 56 55 55 53 52 53 52 38 45 57 71 76 72 73 70 66 69 71 72 77 79 80 89 97 98 99 100 100 99 100 94 96 90 89 82 76 69 67 68 62
62 47 45 52 41 41 49 44 46 51 35 41 47 59 72 72 65 63 60 59 62 61 62 68 72 75 78 87 94 97 99 100 100 100 99 89 90 92 96 94 99 100 100 94
61 44 48 38 42 44 39 40 40 44 41 41 47 58 63 62 61 55 56 55 54 53 54 56 58 65 74 80 86 87 88 93 100 100 100 98 98 100 100 97 98 100 99 100
62 47 34 30 36 51 56 39 33 42 39 40 48 55 56 59 55 56 56 54 55 55 54 57 58 58 66 74 88 98 98 94 94 100 100 100 96 100 100 98 97 98 100 99
54 65 43 28 41 43 44 52 31 36 37 39 50 54 42 57 52 54 56 58 60 57 57 59 62 60 60 68 75 89 96 96 95 94 97 98 92 99 100 98 99 100 100 100
56 59 41 24 45 45 49 38 39 38 34 38 49 39 51 51 53 57 60 62 66 59 63 66 67 59 63 66 72 76 80 83 85 88 90 90 91 93 94 96 98 99 99 100
49 51 60 37 53 51 36 40 39 42 38 41 39 50 54 53 53 57 59 63 67 64 63 66 69 61 61 65 62 64 74 77 80 77 79 76 77 78 79 82 85 88 92 96
33 33 32 36 31 34 37 35 42 41 40 41 42 50 52 54 54 54 59 61 65 65 62 64 69 67 62 66 62 54 56 66 70 71 75 76 71 70 70 72 76 80 84 85
37 21 24 23 26 29 38 41 38 39 37 43 43 46 49 51 52 53 57 61 64 66 62 62 67 68 67 67 63 58 56 57 55 64 62 67 66 64 66 65 66 68 70 69
32 28 24 22 24 28 28 34 42 44 42 42 42 43 45 49 51 52 54 59 65 66 64 63 69 69 69 69 65 60 60 60 59 58 61 68 79 79 73 92 82 70 69 75
22 22 25 22 27 29 33 34 36 47 50 46 44 44 43 46 48 51 54 58 64 68 67 66 70 70 71 70 67 60 54 57 54 52 58 63 70 75 58 73 65 59 70 77
27 28 32 30 29 28 28 31 36 36 42 49 49 46 43 47 48 51 54 58 63 65 68 70 72 73 74 74 69 66 57 54 52 45 47 50 54 60 71 56 54 56 65 69
29 29 32 26 29 30 32 42 48 45 38 45 46 49 51 50 53 55 59 60 62 65 67 70 74 76 78 80 75 71 67 57 52 46 52 52 52 56 54 55 57 65 58 65
29 30 33 34 37 38 36 36 39 52 48 48 50 52 54 56 59 60 61 62 66 68 69 72 75 79 81 85 81 73 71 65 57 57 64 63 59 59 59 58 54 54 61 60
37 42 44 45 45 44 44 43 43 51 50 50 52 56 58 59 61 62 64 67 71 73 75 74 79 81 83 87 85 79 72 68 63 61 66 66 62 60 61 61 58 56 58 61
51 46 49 50 47 44 47 44 44 51 53 54 57 58 59 63 65 69 72 72 75 75 73 76 79 82 84 87 88 84 75 72 75 65 65 66 66 62 60 62 62 62 62 64
46 48 49 48 47 44 42 46 51 50 52 55 62 67 69 71 74 72 76 76 78 79 77 76 77 80 83 85 86 87 77 72 78 72 67 67 71 67 64 64 64 63 63 68
43 48 47 47 46 46 47 48 51 56 62 66 68 71 73 74 75 74 74 78 84 84 80 78 78 81 83 83 82 88 82 77 73 76 68 70 74 73 71 72 68 65 67 70
44 48 51 51 53 56 56 52 55 57 57 60 67 72 72 70 73 75 76 80 79 74 74 73 76 80 84 83 83 87 84 80 75 70 72 74 78 79 74 71 69 70 72 74
50 50 51 48 48 49 52 53 54 55 60 64 69 72 71 71 72 75 82 85 79 83 80 75 75 77 83 84 85 90 86 82 76 71 74 79 77 76 75 75 75 76 80 79
62 63 65 60 59 60 52 54 59 62 65 68 69 74 81 81 79 80 80 80 73 74 77 85 81 74 79 87 88 94 88 82 78 75 78 79 82 82 81 80 86 92 90 87
68 66 62 64 70 66 60 59 57 59 66 69 71 73 76 74 73 77 78 72 76 77 83 85 81 78 75 86 88 92 88 84 81 80 82 83 85 85 88 96 99 99 100 99
67 66 65 62 64 70 75 64 62 66 70 71 71 71 80 80 77 77 80 76 77 80 81 85 87 83 84 86 88 89 89 88 86 84 85 94 91 96 100 99 100 100 98 99
63 66 71 78 80 76 70 68 70 72 72 72 70 69 72 76 86 78 79 84 89 85 90 90 90 92 98 95 96 92 90 87 83 87 95 99 100 100 99 100 100 99 97 97
69 70 67 67 70 71 72 74 75 74 75 76 75 75 75 76 79 84 86 88 92 93 95 96 94 100 100 99 97 94 93 93 99 100 100 100 99 100 100 100 97 98 100 98
75 78 76 77 75 75 77 78 80 80 80 79 80 81 83 84 85 87 92 92 92 94 98 98 98 100 100 99 98 98 97 100 100 100 99 98 100 100 100 97 96 97 98 96
Wind_Speed
10 13 12 13 12 10 8 10 6 5 10 13 8 7 9 10 12 14 15 15 14 14 14 20 24 26 25 25 27 12 6 5 8 8 10 14 13 13 14 16 17 22 23 21
6 7 8 15 17 16 16 16 16 16 16 3 3 2 7 9 12 14 14 15 15 15 15 19 23 24 26 26 27 27 24 20 11 5 1 4 4 6 2 7 17 18 18 20
4 4 12 11 9 13 10 11 12 9 4 2 4 3 5 7 9 10 12 13 15 15 16 21 23 25 25 26 25 27 26 26 23 11 12 12 12 12 10 7 6 4 1 8
6 11 3 2 1 3 11 10 13 14 10 5 4 1 3 4 6 9 11 12 12 15 18 20 22 24 24 26 26 27 27 27 28 23 16 18 17 12 14 20 21 18 19 18
4 7 14 4 4 5 7 8 10 15 10 4 4 4 8 3 2 4 7 9 11 14 15 17 21 21 21 22 24 26 27 27 26 25 22 20 30 24 20 25 28 24 23 28
0 4 4 2 4 3 2 7 7 8 9 8 7 4 3 7 4 1 4 7 10 13 13 15 17 17 18 18 19 19 19 21 24 25 26 32 31 22 26 28 20 18 26 29
9 6 7 2 6 4 3 3 5 7 6 8 9 6 5 6 4 3 2 5 9 10 12 14 15 15 16 17 19 15 14 15 17 18 19 17 15 16 18 20 20 23 24 26
5 5 7 11 8 5 2 1 5 7 7 8 8 2 5 5 4 4 3 4 5 7 8 9 12 13 12 14 14 13 14 14 15 16 15 14 15 15 15 16 17 18 18 19
6 5 3 12 5 7 2 3 6 8 8 9 9 10 10 9 9 8 7 5 2 4 6 7 9 10 9 10 11 11 11 12 13 14 14 14 14 13 14 14 15 14 14 14
4 3 10 14 14 13 8 9 6 8 9 10 11 10 11 10 9 8 10 9 7 5 4 5 4 5 6 8 8 8 8 9 10 11 11 11 12 13 12 12 10 10 10 10
11 18 14 6 7 8 10 12 11 8 10 12 11 11 11 10 10 12 12 11 9 8 7 7 5 4 4 4 5 5 5 6 7 7 8 10 12 11 11 12 10 8 10 10
4 3 4 7 2 9 10 10 13 13 12 13 13 13 12 11 13 14 13 12 11 11 12 11 9 8 6 5 3 3 2 1 0 2 3 4 6 9 12 10 11 11 9 8
5 5 11 15 16 15 15 12 12 13 15 13 15 16 16 10 14 15 15 15 16 16 15 14 13 12 9 8 7 5 5 3 3 3 4 4 5 7 7 6 7 6 7 7
9 11 12 7 5 11 11 9 12 14 16 16 15 15 16 13 13 15 17 18 17 16 16 16 15 15 12 11 10 9 8 9 6 6 5 5 5 5 6 7 7 5 2 4
12 8 13 16 16 16 16 13 11 9 9 11 14 13 14 13 13 16 16 15 15 15 16 16 16 16 13 13 14 11 10 9 9 8 7 7 7 7 6 6 6 5 4 1
12 12 12 11 10 11 10 10 10 9 8 9 9 13 16 16 16 15 14 14 14 16 18 17 18 18 16 16 17 15 15 15 13 12 11 11 10 9 8 8 7 6 6 5
5 5 7 7 6 6 6 5 7 7 7 6 10 13 14 15 16 16 17 19 21 21 19 20 22 20 21 21 21 18 17 16 18 15 15 15 14 13 11 10 9 8 6 6
7 8 8 9 8 8 7 6 6 8 8 12 11 12 13 14 14 19 20 20 20 20 25 24 24 23 25 25 24 21 18 17 18 18 16 16 16 15 14 12 11 9 8 7
6 6 5 6 8 8 7 7 9 10 10 10 11 12 15 18 20 21 19 17 19 19 29 28 28 26 28 28 27 25 21 20 20 20 19 17 16 16 15 14 12 10 9 9
7 8 8 8 7 8 7 9 10 11 12 11 13 13 14 18 18 19 19 22 28 31 27 25 29 32 32 30 28 26 23 21 20 19 18 17 17 17 17 14 12 11 11 10
6 6 7 7 7 8 7 8 9 10 12 12 12 13 15 19 16 16 14 10 30 25 28 29 30 31 33 32 30 30 25 23 22 21 20 19 18 17 15 13 12 11 12 11
6 5 7 9 9 12 16 13 12 14 15 15 16 18 16 18 17 18 23 25 26 21 24 28 32 32 30 31 30 29 26 25 24 21 19 19 18 16 14 13 13 12 11 11
11 11 12 12 11 15 20 21 21 19 18 18 17 17 16 18 17 12 8 19 23 22 25 27 31 33 35 30 29 27 25 23 20 19 18 17 16 15 13 14 12 11 10 11
13 13 15 15 14 12 10 20 21 20 19 23 25 24 19 16 19 20 24 27 26 25 26 28 29 33 34 31 27 24 21 19 19 19 19 16 16 14 14 12 11 10 10 10
13 14 16 12 8 7 13 16 17 17 17 19 21 22 20 19 17 23 21 20 20 21 23 25 26 28 27 22 20 19 20 22 23 21 19 17 15 15 13 11 10 10 11 11
13 12 13 13 13 11 11 11 11 15 14 15 18 17 17 18 20 20 21 21 21 19 20 18 20 22 23 20 18 19 19 19 17 17 16 14 14 12 12 10 9 9 10 10
14 14 12 9 10 12 12 11 12 15 17 17 19 22 21 21 20 20 19 18 16 15 15 16 15 19 20 18 17 18 18 16 15 14 13 12 11 10 11 9 9 9 10 10
Wind_Direction
267 270 260 257 259 253 212 247 262 268 262 300 306 318 313 327 343 359 1 6 6 3 4 8 11 10 7 7 19 70 81 345 316 316 252 232 224 227 233 234 234 231 236 225
277 266 271 265 258 255 255 255 263 269 280 270 315 302 333 351 359 2 2 8 10 10 8 10 12 14 20 20 28 44 41 27 24 50 18 80 33 18 25 253 247 241 245 249
274 247 296 275 256 233 230 237 235 259 285 325 292 314 340 339 357 4 3 7 10 11 11 6 13 17 25 31 34 39 32 25 27 71 92 81 84 68 59 45 14 50 306 222
288 304 242 92 245 280 224 244 236 249 270 281 284 285 296 328 348 358 5 4 10 8 10 14 16 23 26 28 28 31 29 35 36 51 69 82 84 95 95 81 80 78 83 95
276 306 284 284 181 206 205 280 243 240 245 226 214 240 244 222 332 349 350 354 0 4 15 19 18 22 28 33 34 30 16 21 36 48 56 70 70 53 87 93 82 67 76 74
30 284 272 66 193 175 193 269 196 206 207 199 188 251 125 171 195 297 343 356 353 2 13 23 21 24 26 32 37 38 26 25 28 41 54 61 69 59 71 81 86 79 68 63
236 255 277 239 159 159 237 43 167 193 206 194 208 254 105 151 189 227 299 345 354 6 12 10 12 19 27 24 27 25 41 48 44 45 56 69 71 69 81 82 78 73 70 64
210 228 267 138 136 213 44 47 179 191 208 222 234 198 195 205 227 242 268 311 348 357 6 10 17 15 24 24 17 18 27 39 48 51 50 57 63 64 64 67 68 69 67 64
218 236 83 193 251 232 318 293 216 215 211 213 220 214 208 210 219 227 234 245 270 321 333 9 11 11 13 9 16 20 34 39 40 44 47 49 54 55 58 58 62 60 58 57
316 230 258 249 248 253 252 252 259 232 226 215 222 216 217 220 223 227 229 230 233 251 280 312 335 347 350 350 7 17 29 37 45 51 54 54 57 56 57 56 65 73 74 72
261 276 281 276 274 273 278 243 251 241 233 221 225 224 222 223 227 229 231 226 226 239 255 264 268 283 301 327 344 351 7 21 35 50 59 66 64 58 64 59 63 63 58 59
226 13 302 301 203 326 303 270 244 237 230 225 222 228 220 227 225 228 229 227 228 235 242 246 239 243 246 259 272 282 284 313 61 94 99 100 95 78 71 68 62 69 89 85
266 315 294 285 289 293 279 268 271 263 239 231 224 226 226 223 224 222 224 222 224 228 235 239 237 239 238 241 243 250 253 235 227 208 192 174 165 155 143 107 95 91 87 89
273 305 296 297 297 319 313 298 299 280 256 235 236 224 232 227 229 222 222 224 224 227 232 233 233 235 232 233 233 235 235 230 222 223 216 203 184 178 171 176 169 163 111 97
275 265 266 288 290 289 294 288 279 281 257 243 239 241 225 231 230 229 232 229 223 227 232 231 233 236 228 225 229 228 229 232 228 226 222 214 200 191 182 174 171 168 183 235
302 294 287 282 290 297 291 285 273 273 268 250 241 235 239 240 245 243 236 227 217 225 230 229 231 234 225 224 229 230 231 230 225 220 217 213 212 207 202 200 198 197 197 191
288 316 321 313 297 309 324 297 264 274 281 268 255 258 252 242 243 238 231 223 224 229 230 225 230 228 221 224 221 220 225 226 219 219 218 218 216 213 211 207 208 209 210 219
247 271 275 271 284 291 295 286 278 272 267 270 267 256 246 235 236 239 237 229 224 228 232 228 230 225 223 225 223 217 222 222 217 219 221 219 216 213 209 206 207 205 204 223
242 265 278 265 266 277 290 297 294 288 286 281 270 258 254 251 248 249 244 226 219 227 241 233 230 220 224 227 221 215 217 218 217 217 219 217 215 214 211 212 210 214 212 215
218 234 260 271 275 274 294 312 313 309 307 297 286 283 277 271 265 258 247 232 231 235 240 232 228 224 220 221 218 213 215 218 219 218 214 212 213 216 221 219 214 212 220 222
235 229 253 279 302 306 296 303 308 301 302 298 280 275 275 280 279 274 264 257 264 263 251 239 229 225 220 216 214 213 213 215 215 213 209 208 208 210 217 222 227 226 235 234
285 294 300 303 302 296 295 295 296 291 292 289 283 275 271 273 273 261 253 248 264 267 257 233 235 237 224 214 212 211 211 211 209 207 207 208 211 211 211 220 223 229 234 240
283 288 291 284 274 284 298 295 293 295 290 290 283 279 266 268 272 267 270 275 262 263 248 239 241 239 226 211 211 207 209 208 206 204 207 211 213 218 217 216 220 229 231 240
251 259 261 272 285 288 284 294 302 299 293 294 294 295 281 281 281 271 265 270 269 268 256 247 239 232 214 207 205 203 204 205 206 213 217 217 219 220 220 217 215 223 233 234
250 265 271 265 251 255 266 282 288 288 285 287 292 298 297 290 261 286 290 285 275 266 258 253 241 232 209 204 197 199 201 204 210 213 216 213 214 214 218 215 231 239 244 239
252 245 253 251 255 272 280 283 279 291 295 292 291 293 294 294 290 284 285 283 273 264 254 240 232 213 200 194 191 199 203 208 207 204 208 209 214 220 220 232 236 234 237 237
254 258 262 264 261 261 257 268 283 288 295 295 294 301 300 297 293 285 282 278 265 253 239 224 210 191 189 190 197 206 208 213 211 206 204 210 228 230 234 235 237 229 231 236